• Processing (Info)

  • MPEC 2014-L46 : 2014 LX21

    The following Minor Planet Electronic Circular may be linked-to from your own Web pages, but must not otherwise be redistributed electronically.

    A form allowing access to any MPEC is at the bottom of this page.


    Read MPEC 2014-L45 Read MPEC 2014-L47


    M.P.E.C. 2014-L46                                Issued 2014 June  9, 14:06 UT
    
         The Minor Planet Electronic Circulars contain information on unusual
             minor planets and routine data on comets.  They are published
       on behalf of Commission 20 of the International Astronomical Union by the
              Minor Planet Center, Smithsonian Astrophysical Observatory,
                              Cambridge, MA 02138, U.S.A.
    
                 Prepared using the Tamkin Foundation Computer Network
    
                                  MPC@CFA.HARVARD.EDU
                URL http://www.minorplanetcenter.net/    ISSN 1523-6714
    
                                       2014 LX21
    
    Observations:
         K14L21X* C2014 06 06.24510 15 56 13.04 -20 49 45.2          20.8 VqEL046G96
         K14L21X  C2014 06 06.27597 15 56 13.79 -20 48 52.6          20.6 VqEL046G96
         K14L21X  C2014 06 06.29501 15 56 14.28 -20 48 19.3          20.6 VqEL046G96
         K14L21X  C2014 06 07.30825 15 57 01.24 -20 18 20.8          20.3 VqEL046G96
         K14L21X  C2014 06 07.31341 15 57 01.33 -20 18 10.9          20.2 VqEL046G96
         K14L21X  C2014 06 07.31618 15 57 01.46 -20 18 06.2          20.1 VqEL046G96
         K14L21X  C2014 06 07.31894 15 57 01.54 -20 18 01.1          20.8 VqEL046G96
         K14L21X  C2014 06 07.32938 15 57 04.41 -20 17 35.3          21.6 RLEL046F51
         K14L21X  C2014 06 07.35257 15 57 05.03 -20 16 53.4          20.7 RLEL046F51
         K14L21X  C2014 06 07.36377 15 57 05.36 -20 16 32.9          21.1 RLEL046F51
         K14L21X |C2014 06 09.17402 15 58 41.70 -19 17 57.2          20.2 VuEL046807
         K14L21X |C2014 06 09.17926 15 58 41.92 -19 17 46.6          20.2 VuEL046807
         K14L21X |C2014 06 09.18558 15 58 42.16 -19 17 33.7          20.1 VuEL046807
    
    Observer details:
    807 Cerro Tololo.  Observers T. Linder, R. Holmes.  Measurers T. Linder,
        R. Holmes, C. Smith.  0.41-m f/11 Ritchey-Chretien + CCD.
    F51 Pan-STARRS 1, Haleakala.  Observers N. Primak, A. Schultz, T. Goggia,
        M. Willman.  Measurer P. Veres.  1.8-m Ritchey-Chretien + CCD.
    G96 Mt. Lemmon Survey.  Observer J. A. Johnson.  Measurers E. J. Christensen,
        A. R. Gibbs, A. D. Grauer, R. E. Hill, J. A. Johnson, R. A. Kowalski,
        S. M. Larson, R. J. Sanders, F. C. Shelly.  1.5-m reflector + CCD.
    
    Orbital elements:
    2014 LX21                                                Earth MOID = 0.0664 AU
    Epoch 2014 May 23.0 TT = JDT 2456800.5                  MPC
    M 340.09529              (2000.0)            P               Q
    n   0.32349629     Peri.   48.11853     +0.52775753     +0.84536938
    a   2.1016312      Node   253.91434     -0.80254816     +0.46443782
    e   0.5003182      Incl.    4.93150     -0.27818778     +0.26390929
    P   3.05           H   23.7           G   0.15           U   8
    Residuals in seconds of arc
    140606 G96  0.1+  0.3+    140607 G96  0.1+  0.3+    140609 807  0.2-  0.0
    140606 G96  0.2-  0.2-    140607 G96  0.1+  0.2+    140609 807  0.1+  0.0
    140606 G96  0.1-  0.0     140607 F51  0.3+  0.4-    140609 807  0.1+  0.0
    140607 G96  0.4+  0.4+    140607 F51  0.3-  0.1-
    140607 G96  0.5-  0.7+    140607 F51  0.0   0.2+
    
    Ephemeris:
    2014 LX21                a,e,i = 2.10, 0.50, 5                   q = 1.0501
    Date    TT    R. A. (2000) Decl.     Delta      r     Elong.  Phase     V
    2014 05 10    15 48 31.6 -27 24 39   0.3436  1.3457   166.1    10.4    22.7
    ...
    2014 05 25    15 51 08.8 -25 06 50   0.2410  1.2529   174.5     4.4    21.5
    ...
    2014 06 02    15 53 41.1 -22 38 23   0.1962  1.2076   169.6     8.7    21.2
    ...
    2014 06 08    15 57 37.1 -19 56 18   0.1664  1.1761   164.5    13.4    20.9
    2014 06 09    15 58 32.1 -19 23 57   0.1618  1.1711   163.6    14.2    20.9
    2014 06 10    15 59 32.5 -18 49 52   0.1572  1.1662   162.7    15.0    20.9
    ...
    2014 06 16    16 07 52.9 -14 42 14   0.1315  1.1383   157.4    20.1    20.6
    ...
    2014 06 24    16 27 40.4 -06 33 51   0.1020  1.1061   150.2    27.1    20.2
    ...
    2014 07 09    17 59 06.7 +21 33 53   0.06843 1.0641   132.6    44.7    19.7
    
    A. U. Tomatic                (C) Copyright 2014 MPC           M.P.E.C. 2014-L46
    

    Read MPEC 2014-L45 Read MPEC 2014-L47


    MPEC number:

    Enter an MPEC number in one of the following forms:

    • 1997-B01 (the full form)
    • J97B01 (the packed version of the full form)
    • B01 (the abbreviated form)